Estación de Calama Rural INIA
Ultimos registro cada 15 minutos 83
| N° | Estación | Fecha / Hora | Temperatura | Humedad | Lluvia | Velocidad | Dirección | Radiación | Presion |
| 83 | Calama Rural INIA | 03-05-2026 20:30 | 12,1 | 25,4 | 0 | 0 | 0 | 8 | 781,6 |
| 82 | Calama Rural INIA | 03-05-2026 20:15 | 12 | 25,6 | 0 | 0 | 0 | 9 | 781,7 |
| 81 | Calama Rural INIA | 03-05-2026 20:00 | 11,9 | 27,1 | 0 | 0 | 0 | 8 | 781,3 |
| 80 | Calama Rural INIA | 03-05-2026 19:45 | 12,8 | 25,6 | 0 | 0 | 0 | 8 | 780,9 |
| 79 | Calama Rural INIA | 03-05-2026 19:30 | 13,8 | 22,7 | 0 | 0 | 0 | 8 | 780,9 |
| 78 | Calama Rural INIA | 03-05-2026 19:15 | 14,6 | 20,1 | 0 | 0 | 0 | 9 | 780,8 |
| 77 | Calama Rural INIA | 03-05-2026 19:00 | 15,9 | 17,1 | 0 | 0,1 | 247 | 8 | 780,7 |
| 76 | Calama Rural INIA | 03-05-2026 18:45 | 16 | 14,5 | 0 | 0 | 0 | 8 | 780,6 |
| 75 | Calama Rural INIA | 03-05-2026 18:30 | 17,1 | 12,8 | 0 | 0 | 0 | 9 | 780,5 |
| 74 | Calama Rural INIA | 03-05-2026 18:15 | 18,2 | 11,9 | 0 | 0 | 0 | 12 | 780,4 |
| 73 | Calama Rural INIA | 03-05-2026 18:00 | 19,5 | 11,5 | 0 | 1,4 | 245 | 17 | 780,4 |
| 72 | Calama Rural INIA | 03-05-2026 17:45 | 20,3 | 10,7 | 0 | 1,6 | 249 | 21 | 780,3 |
| 71 | Calama Rural INIA | 03-05-2026 17:30 | 20,9 | 10 | 0 | 2,4 | 241 | 28 | 780,2 |
| 70 | Calama Rural INIA | 03-05-2026 17:15 | 21,4 | 10,1 | 0 | 2,9 | 239 | 32 | 780,1 |
| 69 | Calama Rural INIA | 03-05-2026 17:00 | 21,7 | 10,2 | 0 | 2,9 | 240 | 33 | 780,1 |
| 68 | Calama Rural INIA | 03-05-2026 16:45 | 22,2 | 10,1 | 0 | 3,2 | 247 | 49 | 780,1 |
| 67 | Calama Rural INIA | 03-05-2026 16:30 | 23,3 | 9,6 | 0 | 2,9 | 246 | 247 | 780,1 |
| 66 | Calama Rural INIA | 03-05-2026 16:15 | 23,7 | 9,3 | 0 | 2,9 | 242 | 312 | 780,1 |
| 65 | Calama Rural INIA | 03-05-2026 16:00 | 24 | 9,5 | 0 | 3,1 | 247 | 353 | 780,2 |
| 64 | Calama Rural INIA | 03-05-2026 15:45 | 24,2 | 10,2 | 0 | 3,6 | 241 | 391 | 780,2 |
| 63 | Calama Rural INIA | 03-05-2026 15:30 | 24,1 | 10,5 | 0 | 3,7 | 239 | 431 | 780,2 |
| 62 | Calama Rural INIA | 03-05-2026 15:15 | 24,3 | 10,9 | 0 | 3,6 | 243 | 464 | 780,3 |
| 61 | Calama Rural INIA | 03-05-2026 15:00 | 24,4 | 11 | 0 | 3,7 | 237 | 500 | 780,4 |
| 60 | Calama Rural INIA | 03-05-2026 14:45 | 24,6 | 11 | 0 | 3,2 | 236 | 530 | 780,6 |
| 59 | Calama Rural INIA | 03-05-2026 14:30 | 24,7 | 10,4 | 0 | 2,8 | 241 | 512 | 780,8 |
| 58 | Calama Rural INIA | 03-05-2026 14:15 | 24,4 | 10,3 | 0 | 2,7 | 239 | 547 | 780,7 |
| 57 | Calama Rural INIA | 03-05-2026 14:00 | 24,5 | 10,7 | 0 | 3,1 | 232 | 555 | 780,9 |
| 56 | Calama Rural INIA | 03-05-2026 13:45 | 24,4 | 9,4 | 0 | 2,9 | 236 | 571 | 780,9 |
| 55 | Calama Rural INIA | 03-05-2026 13:30 | 24,2 | 9,3 | 0 | 2,8 | 241 | 620 | 781,1 |
| 54 | Calama Rural INIA | 03-05-2026 13:15 | 24,2 | 9 | 0 | 2,7 | 238 | 633 | 781,1 |
| 53 | Calama Rural INIA | 03-05-2026 13:00 | 23,8 | 9,6 | 0 | 2,7 | 243 | 598 | 781,1 |
| 52 | Calama Rural INIA | 03-05-2026 12:45 | 23,4 | 10,3 | 0 | 2,9 | 239 | 652 | 781,3 |
| 51 | Calama Rural INIA | 03-05-2026 12:30 | 23,4 | 11,1 | 0 | 2,3 | 238 | 646 | 781,4 |
| 50 | Calama Rural INIA | 03-05-2026 12:15 | 23,1 | 11 | 0 | 3,3 | 239 | 588 | 781,6 |
| 49 | Calama Rural INIA | 03-05-2026 12:00 | 25,2 | 12 | 0 | 3,4 | 237 | 511 | 781,4 |
| 48 | Calama Rural INIA | 03-05-2026 11:45 | 29,6 | 7 | 0 | 0 | 0 | 558 | 781,5 |
| 47 | Calama Rural INIA | 03-05-2026 11:30 | 30 | 10,5 | 0 | 0 | 0 | 482 | 781,7 |
| 46 | Calama Rural INIA | 03-05-2026 11:15 | 29,3 | 8,5 | 0 | 0 | 0 | 485 | 781,7 |
| 45 | Calama Rural INIA | 03-05-2026 11:00 | 27,7 | 7,8 | 0 | 0 | 0 | 553 | 781,8 |
| 44 | Calama Rural INIA | 03-05-2026 10:45 | 25,4 | 8 | 0 | 0 | 0 | 527 | 782 |
| 43 | Calama Rural INIA | 03-05-2026 10:30 | 24,1 | 7,9 | 0 | 0 | 0 | 510 | 782,2 |
| 42 | Calama Rural INIA | 03-05-2026 10:15 | 22,6 | 10 | 0 | 0,2 | 51 | 518 | 782,2 |
| 41 | Calama Rural INIA | 03-05-2026 10:00 | 21,3 | 7,2 | 0 | 1,7 | 59 | 492 | 782,2 |
| 40 | Calama Rural INIA | 03-05-2026 09:45 | 19,8 | 8,7 | 0 | 1,8 | 66 | 455 | 782,3 |
| 39 | Calama Rural INIA | 03-05-2026 09:30 | 18,6 | 6,8 | 0 | 1,4 | 62 | 418 | 782,2 |
| 38 | Calama Rural INIA | 03-05-2026 09:15 | 17,2 | 6,8 | 0 | 3 | 61 | 384 | 782,3 |
| 37 | Calama Rural INIA | 03-05-2026 09:00 | 16 | 7 | 0 | 3 | 59 | 338 | 782,2 |
| 36 | Calama Rural INIA | 03-05-2026 08:45 | 14,1 | 9 | 0 | 3,8 | 64 | 294 | 782,2 |
| 35 | Calama Rural INIA | 03-05-2026 08:30 | 13,2 | 9,1 | 0 | 2,4 | 63 | 250 | 782,2 |
| 34 | Calama Rural INIA | 03-05-2026 08:15 | 12,4 | 8,5 | 0 | 3,1 | 64 | 205 | 781,9 |
| 33 | Calama Rural INIA | 03-05-2026 08:00 | 12,2 | 8,4 | 0 | 2,2 | 62 | 162 | 781,9 |
| 32 | Calama Rural INIA | 03-05-2026 07:45 | 11,9 | 8,8 | 0 | 0,9 | 55 | 118 | 781,8 |
| 31 | Calama Rural INIA | 03-05-2026 07:30 | 10,9 | 8,5 | 0 | 2,1 | 62 | 56 | 781,7 |
| 30 | Calama Rural INIA | 03-05-2026 07:15 | 10,2 | 7,9 | 0 | 1,7 | 61 | 16 | 781,6 |
| 29 | Calama Rural INIA | 03-05-2026 07:00 | 9,2 | 9,8 | 0 | 1,4 | 54 | 11 | 781,5 |
| 28 | Calama Rural INIA | 03-05-2026 06:45 | 8 | 8,9 | 0 | 2,2 | 61 | 8 | 781,3 |
| 27 | Calama Rural INIA | 03-05-2026 06:30 | 7,3 | 9,7 | 0 | 2,9 | 65 | 11 | 781,2 |
| 26 | Calama Rural INIA | 03-05-2026 06:15 | 7,1 | 10 | 0 | 2,7 | 65 | 9 | 781,3 |
| 25 | Calama Rural INIA | 03-05-2026 06:00 | 6,5 | 10,3 | 0 | 1,8 | 61 | 9 | 781,2 |
| 24 | Calama Rural INIA | 03-05-2026 05:45 | 7,6 | 9 | 0 | 2,4 | 56 | 8 | 781,1 |
| 23 | Calama Rural INIA | 03-05-2026 05:30 | 6,8 | 9,6 | 0 | 3,1 | 59 | 8 | 781,1 |
| 22 | Calama Rural INIA | 03-05-2026 05:15 | 6,3 | 9,8 | 0 | 3,2 | 64 | 15 | 781,1 |
| 21 | Calama Rural INIA | 03-05-2026 05:00 | 5,9 | 10,2 | 0 | 2,6 | 72 | 9 | 781,1 |
| 20 | Calama Rural INIA | 03-05-2026 04:45 | 6 | 10,3 | 0 | 2 | 66 | 9 | 781 |
| 19 | Calama Rural INIA | 03-05-2026 04:30 | 6,4 | 10 | 0 | 3,2 | 66 | 10 | 781 |
| 18 | Calama Rural INIA | 03-05-2026 04:15 | 6,5 | 9,8 | 0 | 3,8 | 74 | 14 | 780,9 |
| 17 | Calama Rural INIA | 03-05-2026 04:00 | 6,2 | 9,8 | 0 | 3,5 | 71 | 8 | 780,9 |
| 16 | Calama Rural INIA | 03-05-2026 03:45 | 7,1 | 9,7 | 0 | 3,2 | 78 | 9 | 781,1 |
| 15 | Calama Rural INIA | 03-05-2026 03:30 | 7,9 | 9,2 | 0 | 3,9 | 72 | 9 | 781,2 |
| 14 | Calama Rural INIA | 03-05-2026 03:15 | 9,5 | 8,9 | 0 | 3,4 | 74 | 12 | 781,2 |
| 13 | Calama Rural INIA | 03-05-2026 03:00 | 11,1 | 8,1 | 0 | 2,4 | 67 | 10 | 781,3 |
| 12 | Calama Rural INIA | 03-05-2026 02:45 | 11,5 | 7,9 | 0 | 1,5 | 65 | 8 | 781,5 |
| 11 | Calama Rural INIA | 03-05-2026 02:30 | 11,2 | 7,8 | 0 | 1,3 | 61 | 8 | 781,7 |
| 10 | Calama Rural INIA | 03-05-2026 02:15 | 11,4 | 8,2 | 0 | 0,9 | 62 | 9 | 781,6 |
| 9 | Calama Rural INIA | 03-05-2026 02:00 | 11,6 | 8,6 | 0 | 1,1 | 64 | 8 | 781,8 |
| 8 | Calama Rural INIA | 03-05-2026 01:45 | 11,9 | 8,3 | 0 | 0,1 | 51 | 8 | 781,8 |
| 7 | Calama Rural INIA | 03-05-2026 01:30 | 11,5 | 8,2 | 0 | 0,5 | 52 | 9 | 781,9 |
| 6 | Calama Rural INIA | 03-05-2026 01:15 | 10,5 | 9,3 | 0 | 0 | 55 | 9 | 782 |
| 5 | Calama Rural INIA | 03-05-2026 01:00 | 9,9 | 9,9 | 0 | 0 | 0 | 8 | 782 |
| 4 | Calama Rural INIA | 03-05-2026 00:45 | 10,3 | 11,2 | 0 | 0 | 0 | 8 | 782,2 |
| 3 | Calama Rural INIA | 03-05-2026 00:30 | 11 | 9,3 | 0 | 0 | 0 | 8 | 782,2 |
| 2 | Calama Rural INIA | 03-05-2026 00:15 | 11,5 | 9,3 | 0 | 0 | 0 | 8 | 782,2 |
| 1 | Calama Rural INIA | 03-05-2026 00:00 | 11,8 | 9,5 | 0 | 0 | 58 | 8 | 782,3 |